Date,TemperatureHighF,TemperatureAvgF,TemperatureLowF,DewpointHighF,DewpointAvgF,DewpointLowF,HumidityHigh,HumidityAvg,HumidityLow,PressureMaxIn,PressureMinIn,WindSpeedMaxMPH,WindSpeedAvgMPH,GustSpeedMaxMPH,PrecipitationSumIn
2013-9-2,81.3,73.9,68.4,74.8,67.0,57.6,98,81,46,29.23,29.12,2,-52,6,0.00
2013-9-3,86.7,72.2,61.0,71.6,53.6,28.5,100,63,13,29.32,29.12,4,-61,11,0.00
2013-9-4,86.4,67.6,57.4,59.2,43.8,28.2,96,52,13,29.47,29.29,5,1,11,0.00
2013-9-5,84.9,66.2,54.7,53.8,40.5,19.8,81,46,12,29.59,29.35,5,-30,9,3.78
2013-9-6,79.9,59.0,46.6,40.6,30.4,20.0,76,40,12,29.74,29.59,4,1,6,0.00
2013-9-7,85.0,62.8,47.5,49.4,34.7,23.0,87,43,12,29.59,29.29,5,1,8,0.00
2013-9-8,87.8,67.9,56.3,54.1,40.5,25.3,78,41,16,29.50,29.23,5,2,9,0.00
2013-9-9,81.9,62.5,47.7,49.2,35.8,26.6,70,40,14,29.68,29.47,4,1,7,0.00
2013-9-10,92.1,75.2,64.2,64.5,56.1,43.9,87,56,19,29.62,29.47,5,1,10,0.00
2013-9-11,97.8,81.0,70.5,73.2,58.8,43.3,96,54,16,29.59,29.41,5,-30,10,0.00
2013-9-12,90.4,75.1,66.7,71.9,61.2,48.8,91,66,24,29.41,29.12,6,-27,7,0.41
2013-9-13,78.2,66.0,54.7,65.6,49.2,28.3,100,63,18,29.35,29.06,6,2,10,0.00
2013-9-14,67.0,54.8,44.4,42.1,32.1,25.8,73,45,23,29.59,29.29,5,-32,10,0.00
2013-9-15,79.2,57.2,42.8,50.0,34.5,22.2,94,52,13,29.71,29.53,4,-10,8,0.00
2013-9-16,77.6,60.4,53.2,57.7,44.0,31.0,91,59,21,29.71,29.47,4,-89,8,0.00
2013-9-17,73.6,54.3,42.4,37.7,27.9,17.2,68,41,13,29.94,29.71,4,1,9,0.13
2013-9-18,77.7,54.5,40.6,47.7,30.9,18.9,86,49,13,29.83,29.62,4,-130,6,0.00
2013-9-19,82.6,59.2,45.0,51.1,35.9,23.9,90,51,14,29.71,29.50,3,-260,6,0.00
2013-9-20,85.5,64.0,50.7,58.4,41.4,27.3,92,53,13,29.59,29.41,0,-999,0,0.00
2013-9-21,83.8,65.1,53.4,63.4,46.7,26.4,92,61,14,29.44,29.12,5,-260,9,1.16
2013-9-22,74.8,60.1,49.8,60.9,40.9,20.2,100,59,13,29.38,29.12,5,-288,10,0.21
2013-9-23,71.6,53.8,43.5,37.3,27.9,20.3,76,40,16,29.50,29.35,4,-113,8,0.00
2013-9-24,79.6,55.5,40.8,40.3,30.9,20.5,86,46,12,29.53,29.32,4,-172,7,0.00
2013-9-25,78.8,57.0,43.2,44.5,32.2,20.9,82,46,15,29.44,29.32,4,-443,4,0.00
2013-9-26,76.5,58.1,46.6,55.1,41.8,31.5,93,61,21,29.59,29.35,0,-999,0,0.00
2013-9-27,72.0,58.4,48.4,51.3,40.4,28.3,92,58,21,29.71,29.53,3,-623,6,0.00
2013-9-28,81.3,61.2,50.6,51.4,39.2,23.4,86,53,12,29.80,29.65,0,-999,0,0.00
2013-9-29,78.0,58.6,47.5,55.6,40.1,28.2,94,58,18,29.68,29.50,3,-162,5,0.00
2013-9-30,79.6,57.9,45.5,55.2,38.1,23.8,97,57,15,29.56,29.41,3,-94,5,0.00